Volver al catálogo

CZ-6A DEB

ActivoSSO
NORAD 55195·DEBRIS·🇨🇳 China

Lanzado Nov 11, 2022 desde Taiyuan Satellite Launch Center

Loading…

Próximos Pases (próximas 24 horas)

TLE

ActualizadoSource: Space-Track

Época: Sep 14, 2026, 03:07 UTC

1 55195U 22151VL  26257.13007851  .00004150  00000-0  82613-3 0  9996
2 55195  98.6196 319.0798 0091204  33.1754 327.5118 14.60014164197610

Sigue CZ-6A DEB en tiempo real con AllMySat

Download on the App Store